Weather History for K0E0 - September, 2013

Change the Weather History Date:

Saturday, September 7, 2013

  Actual Average (KABQ) Record (KABQ)
Temperature  
Mean Temperature 66 °F 72 °F  
Max Temperature 85 °F 84 °F 96 °F (1979)
Min Temperature 47 °F 61 °F 44 °F (1918)
Degree Days  
Heating Degree Days 0 0  
Month to date heating degree days 0  
Since 1 July heating degree days 0  
Cooling Degree Days 1 8  
Month to date cooling degree days 59  
Year to date cooling degree days 1216  
Growing Degree Days 16 (Base 50)    
Moisture  
Dew Point 41 °F    
Average Humidity 43    
Maximum Humidity 75    
Minimum Humidity 19    
Precipitation  
Precipitation 0.00 in 0.04 in 0.90 in (1995)
Month to date precipitation 0.26  
Year to date precipitation 6.54  
Snow  
Snow 0.00 in - - ()
Month to date snowfall  
Since 1 July snowfall  
Since 1 September snowfall  
Snow Depth -    
Sea Level Pressure  
Sea Level Pressure 30.27 in    
Wind  
Wind Speed 5 mph (SE)    
Max Wind Speed 14 mph    
Max Gust Speed 22 mph    
Visibility 10 miles    
Events      
T = Trace of Precipitation, MM = Missing Value Source: NWS Daily Summary

Daily Weather History Graph

Daily Weather History Graph

Search for Another Location

Airport or City:

Trip Planner

Search our weather history database for the weather conditions in past years. The results will help you decide how hot, cold, wet, or windy it might be!

Date:

Astronomy

Sep. 07, 2013 Rise Set
Actual Time 6:41 AM MDT 7:21 PM MDT
Civil Twilight 6:15 AM MDT 7:47 PM MDT
Nautical Twilight 5:45 AM MDT 8:17 PM MDT
Astronomical Twilight 5:14 AM MDT 8:48 PM MDT
Moon 8:51 AM MDT (9/7) 8:30 PM MDT (9/7)
Length of Visible Light 13h 31m
Length of Day
12h 40m
Waxing Crescent, 5% of the Moon is Illuminated
Sep 7
Waxing Crescent
Sep 12
First Quarter
Sep 19
Full
Sep 26
Last Quarter
Oct 4
New

Hourly Weather History & Observations

Time (MDT) Temp. Dew Point Humidity Pressure Visibility Wind Dir Wind Speed Gust Speed Precip Events Conditions
12:15 AM 59.2 °F 42.1 °F 53% 30.31 in 10.0 mi SE 5.8 mph - N/A   Clear
12:35 AM 59.9 °F 43.2 °F 54% 30.31 in 10.0 mi SE 6.9 mph - N/A   Clear
12:55 AM 60.4 °F 43.7 °F 54% 30.31 in 10.0 mi SE 6.9 mph - N/A   Clear
1:15 AM 59.0 °F 43.0 °F 55% 30.32 in 10.0 mi Calm Calm - N/A   Clear
1:35 AM 56.7 °F 41.5 °F 57% 30.31 in 10.0 mi NNW 4.6 mph - N/A   Clear
1:55 AM 54.0 °F 41.0 °F 62% 30.31 in 10.0 mi NNW 3.5 mph - N/A   Clear
2:15 AM 54.0 °F 41.7 °F 63% 30.31 in 10.0 mi Calm Calm - N/A   Clear
2:35 AM 55.0 °F 42.1 °F 62% 30.31 in 10.0 mi ENE 3.5 mph - N/A   Clear
2:55 AM 54.5 °F 40.8 °F 60% 30.31 in 10.0 mi WNW 3.5 mph - N/A   Clear
3:15 AM 53.4 °F 41.0 °F 63% 30.31 in 10.0 mi NW 4.6 mph - N/A   Clear
3:35 AM 51.1 °F 39.6 °F 65% 30.31 in 10.0 mi Calm Calm - N/A   Clear
3:55 AM 50.9 °F 39.7 °F 66% 30.31 in 10.0 mi NNW 3.5 mph - N/A   Clear
4:15 AM 50.0 °F 40.1 °F 69% 30.31 in 10.0 mi NNW 5.8 mph - N/A   Clear
4:35 AM 49.1 °F 41.0 °F 74% 30.30 in 10.0 mi NNE 3.5 mph - N/A   Clear
4:55 AM 48.7 °F 40.3 °F 73% 30.30 in 10.0 mi Calm Calm - N/A   Clear
5:15 AM 49.1 °F 41.0 °F 74% 30.31 in 10.0 mi Calm Calm - N/A   Clear
5:35 AM 48.2 °F 39.9 °F 73% 30.31 in 10.0 mi Calm Calm - N/A   Clear
5:55 AM 49.1 °F 40.6 °F 73% 30.31 in 10.0 mi Calm Calm - N/A   Clear
6:15 AM 47.7 °F 38.1 °F 70% 30.31 in 10.0 mi Calm Calm - N/A   Clear
6:35 AM 48.7 °F 41.0 °F 75% 30.31 in 10.0 mi Calm Calm - N/A   Clear
6:55 AM 47.7 °F 39.7 °F 74% 30.31 in 10.0 mi NNW 3.5 mph - N/A   Clear
7:15 AM 49.8 °F 40.6 °F 71% 30.31 in 10.0 mi Calm Calm - N/A   Clear
7:35 AM 53.2 °F 43.2 °F 69% 30.32 in 10.0 mi Calm Calm - N/A   Clear
7:55 AM 56.8 °F 45.0 °F 64% 30.32 in 10.0 mi Calm Calm - N/A   Clear
8:15 AM 59.4 °F 45.5 °F 60% 30.32 in 10.0 mi Calm Calm - N/A   Clear
8:35 AM 62.1 °F 46.2 °F 56% 30.32 in 10.0 mi Calm Calm - N/A   Clear
8:55 AM 64.4 °F 46.8 °F 53% 30.32 in 10.0 mi Calm Calm - N/A   Clear
9:15 AM 66.9 °F 46.6 °F 48% 30.32 in 10.0 mi Calm Calm - N/A   Clear
9:35 AM 69.4 °F 46.9 °F 45% 30.33 in 10.0 mi South 3.5 mph - N/A   Clear
9:55 AM 71.4 °F 47.3 °F 42% 30.33 in 10.0 mi SSE 3.5 mph - N/A   Clear
10:15 AM 73.9 °F 48.4 °F 40% 30.33 in 10.0 mi South 5.8 mph - N/A   Clear
10:35 AM 75.7 °F 48.4 °F 38% 30.32 in 10.0 mi South 6.9 mph - N/A   Clear
10:55 AM 76.8 °F 47.8 °F 36% 30.32 in 10.0 mi South 6.9 mph - N/A   Clear
11:15 AM 77.9 °F 47.3 °F 34% 30.31 in 10.0 mi ESE 3.5 mph - N/A   Clear
11:35 AM 80.1 °F 46.6 °F 31% 30.31 in 10.0 mi East 4.6 mph - N/A   Clear
11:55 AM 80.2 °F 45.9 °F 30% 30.30 in 10.0 mi SE 5.8 mph - N/A   Clear
12:15 PM 80.4 °F 44.2 °F 28% 30.29 in 10.0 mi West 4.6 mph - N/A   Scattered Clouds
12:35 PM 82.8 °F 43.2 °F 25% 30.29 in 10.0 mi SSE 9.2 mph - N/A   Scattered Clouds
12:55 PM 82.4 °F 42.8 °F 25% 30.28 in 10.0 mi South 8.1 mph - N/A   Scattered Clouds
1:15 PM 83.3 °F 41.9 °F 23% 30.27 in 10.0 mi South 8.1 mph 17.3 mph N/A   Clear
1:35 PM 83.3 °F 42.4 °F 24% 30.26 in 10.0 mi South 3.5 mph - N/A   Clear
1:55 PM 83.8 °F 42.8 °F 24% 30.25 in 10.0 mi SSW 11.5 mph - N/A   Scattered Clouds
2:15 PM 82.9 °F 42.3 °F 24% 30.24 in 10.0 mi SSE 12.7 mph 17.3 mph N/A   Clear
2:35 PM 82.2 °F 42.8 °F 25% 30.23 in 10.0 mi East 3.5 mph - N/A   Clear
2:55 PM 85.1 °F 42.4 °F 22% 30.23 in 10.0 mi SE 8.1 mph - N/A   Scattered Clouds
3:15 PM 85.1 °F 41.7 °F 22% 30.22 in 10.0 mi SSE 9.2 mph 19.6 mph N/A   Clear
3:35 PM 82.2 °F 40.6 °F 23% 30.21 in 10.0 mi South 6.9 mph - N/A   Clear
3:55 PM 85.3 °F 40.6 °F 21% 30.20 in 10.0 mi SE 12.7 mph 17.3 mph N/A   Scattered Clouds
4:15 PM 85.1 °F 40.1 °F 20% 30.20 in 10.0 mi SE 12.7 mph 19.6 mph N/A   Scattered Clouds
4:35 PM 85.8 °F 39.0 °F 19% 30.20 in 10.0 mi SE 12.7 mph 19.6 mph N/A   Clear
4:55 PM 84.4 °F 38.1 °F 19% 30.20 in 10.0 mi ESE 11.5 mph 18.4 mph N/A   Clear
5:15 PM 84.2 °F 37.2 °F 19% 30.20 in 10.0 mi ESE 11.5 mph 21.9 mph N/A   Clear
5:35 PM 81.7 °F 36.3 °F 20% 30.20 in 10.0 mi SE 13.8 mph - N/A   Clear
5:55 PM 81.5 °F 35.2 °F 19% 30.20 in 10.0 mi SE 12.7 mph - N/A   Clear
6:15 PM 81.5 °F 34.9 °F 19% 30.20 in 10.0 mi SE 11.5 mph - N/A   Clear
6:35 PM 80.4 °F 34.9 °F 19% 30.19 in 10.0 mi SE 13.8 mph - N/A   Clear
6:55 PM 79.0 °F 34.9 °F 20% 30.20 in 10.0 mi SE 13.8 mph - N/A   Clear
7:15 PM 76.8 °F 35.1 °F 22% 30.20 in 10.0 mi SE 13.8 mph - N/A   Clear
7:35 PM 74.8 °F 35.6 °F 24% 30.21 in 10.0 mi SE 12.7 mph - N/A   Clear
7:55 PM 73.4 °F 36.7 °F 26% 30.22 in 10.0 mi SE 11.5 mph - N/A   Clear
8:15 PM 72.1 °F 38.1 °F 29% 30.22 in 10.0 mi SE 11.5 mph - N/A   Clear
8:35 PM 71.2 °F 38.7 °F 31% 30.23 in 10.0 mi SE 12.7 mph - N/A   Clear
8:55 PM 70.7 °F 38.8 °F 31% 30.23 in 10.0 mi SE 13.8 mph - N/A   Clear
9:15 PM 69.8 °F 39.2 °F 33% 30.24 in 10.0 mi SE 11.5 mph - N/A   Clear
9:35 PM 69.3 °F 39.4 °F 34% 30.25 in 10.0 mi SE 11.5 mph - N/A   Clear
9:55 PM 68.9 °F 39.6 °F 34% 30.26 in 10.0 mi SE 9.2 mph - N/A   Clear
10:15 PM 65.1 °F 39.2 °F 39% 30.27 in 10.0 mi SSW 6.9 mph - N/A   Clear
10:35 PM 63.1 °F 39.9 °F 42% 30.27 in 10.0 mi SW 5.8 mph - N/A   Clear
10:55 PM 61.5 °F 39.7 °F 45% 30.28 in 10.0 mi WSW 5.8 mph - N/A   Clear
11:15 PM 61.7 °F 39.7 °F 44% 30.28 in 10.0 mi South 4.6 mph - N/A   Clear
11:35 PM 61.0 °F 39.6 °F 45% 30.27 in 10.0 mi Calm Calm - N/A   Clear
11:55 PM 60.3 °F 39.7 °F 47% 30.27 in 10.0 mi Calm Calm - N/A   Clear